Location: Litvinovka
(48.6667°N, 34.3500°E)
Time: 14:37:37
(UTC+00:00)

SWAS - Pass Details

Date: 18 September 2020
Orbit: 581 x 590 km, 69.9° (Epoch: 22 October)

Event Time Altitude Azimuth Distance (km) Brightness Sun altitude
Rises 17:55:34 0° 330° (NNW) 2,830 8.9 -20.9°
Reaches altitude 10° 17:57:49 10° 332° (NNW) 1,923 7.9 -21.2°
Maximum altitude 18:02:08 81° 59° (ENE) 601 4.3 -21.9°
Enters shadow 18:02:30 72° 120° (ESE) 621 4.3 -21.9°
